sat.trackr.live / text

‹ back to catalog

STARLINK-37570

NORAD 69519 · 2026-133M

PAYLOAD ACTIVE UNKNOWN

§ Identity

Operator
Country
US
Launch date
2026-06-12
Launch site
AFETR
Launch vehicle
Mass (kg)
RCS (m²)

Purposes: comms

External: N2YO · Heavens-Above · Gunter

§ Orbital elements

Epoch: 2026-09-19T15:29:14.879904Z

Period
93.85 min
Inclination
53.1554°
Eccentricity
0.0002694
Mean motion
15.34392360 rev/d
Perigee alt
460.9 km
Apogee alt
464.6 km
Semi-major
6,840.9 km
B*
5.1494e-4
RAAN
233.6607°
Arg perigee
85.1709°
Mean anomaly
274.9601°
Rev number
1,663

§ Raw data

STARLINK-375701 69519U 26133M   26262.64531111  .00017058  00000+0  51494-3 0  99912 69519  53.1554 233.6607 0002694  85.1709 274.9601 15.34392360 16634

JSON: /api/v1/satellites/69519 · /tle

For live sub-satellite position, see the globe view (requires WebGL).

§ Visibility from observer

Set your observer location to see the next 7 days of passes ≥ 10°. The values pass through the URL so the page stays shareable.

No JS? Fill the form by hand. The geolocation button needs JavaScript.